Location: McCloud Nature Park
(39.8272°N, 86.6824°W)
Time: 11:59:19
(UTC-05:00)

Amateur Radio Satellites - All Passes

Search period start: 23 July 2016 11:29
Search period end: 24 July 2016 11:29
Location: McCloud Nature Park, 39.8272°N, 86.6824°W

Satellite Date Start Highest point End Downlink Frequencies (MHz)
Time Altitude Azimuth
CUBEBUG 1 23 Jul 11:29:22 11:32:05 16° 93° (E) 11:34:48 437.445
Cosmos 2491 23 Jul 11:29:28 11:34:52 18° 282° (WNW) 11:40:17 435.465 / 435.565
AUBIESAT-1 23 Jul 11:31:59 11:36:22 43° 293° (WNW) 11:40:45 437.475
Cosmos 2504 23 Jul 11:38:53 11:47:41 85° 97° (E) 11:56:37 435.465 / 435.565
DELFI C3 23 Jul 11:40:29 11:43:03 17° 293° (WNW) 11:45:37 145.870
NANOSAT C BR1 23 Jul 11:44:13 11:48:25 71° 258° (WSW) 11:52:40 145.865
DUCHIFAT 1 23 Jul 11:50:45 11:54:56 64° 260° (W) 11:59:09 145.980
JAS-2 23 Jul 11:55:09 12:01:10 48° 72° (ENE) 12:06:35 435.910
AISAT 23 Jul 11:59:37 12:03:37 31° 97° (E) 12:07:34 437.250
QB50P1 23 Jul 12:04:20 12:08:17 39° 262° (W) 12:12:17 145.935-145.965
POPSAT HIP 1 23 Jul 12:10:29 12:14:20 34° 263° (W) 12:18:13 437.405
DX 1 23 Jul 12:15:07 12:19:01 31° 97° (E) 12:22:55 434.975-435.025
ESTCUBE 1 23 Jul 12:15:49 12:20:19 81° 103° (ESE) 12:24:48 437.505/2401.250
BUGSAT 1 23 Jul 12:23:57 12:27:57 60° 259° (W) 12:32:02 437.445
QB50P2 23 Jul 12:31:14 12:34:17 19° 266° (W) 12:37:21 145.880/145.840
POLYITAN 1 23 Jul 12:33:55 12:36:56 19° 266° (W) 12:39:59 437.675
Oscar 19 23 Jul 12:35:21 12:39:44 30° 67° (ENE) 12:44:09 437.125/150
UKube-1 23 Jul 12:37:03 12:41:11 43° 99° (E) 12:45:19 .
50 SAT 23 Jul 12:39:22 12:42:59 79° 283° (WNW) 12:46:33 437.505
VELOX 1 23 Jul 12:51:20 12:55:45 72° 285° (WNW) 13:00:11 145.980
TISAT 1 23 Jul 12:56:35 12:58:39 13° 92° (E) 13:00:42 437.305
YUBILEINY 23 Jul 13:03:55 13:06:48 12° 303° (WNW) 13:09:43 435.215
CUBEBUG 1 23 Jul 13:04:24 13:08:33 43° 288° (WNW) 13:12:44 437.445
SPROUT 23 Jul 13:18:55 13:23:15 74° 285° (WNW) 13:27:33 437.525
AO-7 23 Jul 13:19:35 13:23:36 14° 47° (NE) 13:27:37 29.400- 29.500
Gurwin Techsat 1B 23 Jul 13:20:03 13:24:50 36° 69° (ENE) 13:29:39 435.225
RS-15 23 Jul 13:31:06 13:40:12 23° 16° (NNE) 13:49:23 29.354- 29.394
Cosmos 2504 23 Jul 13:35:49 13:42:08 21° 295° (WNW) 13:48:32 435.465 / 435.565
AISAT 23 Jul 13:36:23 13:39:54 23° 293° (WNW) 13:43:25 437.250
JAS-2 23 Jul 13:41:26 13:46:23 24° 265° (W) 13:50:57 435.910
DX 1 23 Jul 13:51:38 13:55:02 23° 293° (WNW) 13:58:25 434.975-435.025
ESTCUBE 1 23 Jul 13:56:05 13:56:27 10° 299° (WNW) 13:56:48 437.505/2401.250
AIST 1 23 Jul 13:58:29 14:02:43 76° 97° (E) 14:06:58
ITAMSAT 1 23 Jul 14:00:05 14:04:31 29° 67° (ENE) 14:08:57 435.822/435.867
SWISSCUBE 23 Jul 14:03:45 14:06:39 16° 92° (E) 14:09:31 437.505
UKube-1 23 Jul 14:14:08 14:16:53 17° 295° (WNW) 14:19:37 .
Oscar 19 23 Jul 14:14:27 14:18:58 31° 263° (W) 14:23:31 437.125/150
AO-85 23 Jul 14:20:51 14:25:48 38° 115° (ESE) 14:30:37 145.980
BEESAT 23 Jul 14:24:53 14:28:43 24° 95° (E) 14:32:32 436.000
TISAT 1 23 Jul 14:30:27 14:34:34 49° 287° (WNW) 14:38:40 437.305
ITUPSAT 1 23 Jul 14:44:39 14:49:05 37° 98° (E) 14:53:29 437.325
Cosmos 2499 23 Jul 14:54:25 15:00:47 23° 80° (E) 15:07:06 435.465 / 435.565
Gurwin Techsat 1B 23 Jul 15:00:18 15:04:48 28° 265° (W) 15:09:20 435.225
AO-7 23 Jul 15:06:31 15:14:44 64° 67° (ENE) 15:22:59 29.400- 29.500
GONETS M04 23 Jul 15:07:19 15:15:02 38° 86° (E) 15:22:47
DANDE 23 Jul 15:32:40 15:34:39 19° 75° (ENE) 15:36:41 436.750
ITAMSAT 1 23 Jul 15:39:07 15:43:51 34° 263° (W) 15:48:36 435.822/435.867
SWISSCUBE 23 Jul 15:40:06 15:44:43 51° 288° (WNW) 15:49:18 437.505
KKS-1 23 Jul 15:40:48 15:43:39 17° 93° (E) 15:46:30 437.445
MOZHAYETS 4 23 Jul 15:43:55 15:47:15 20° 93° (E) 15:50:33
RS-15 23 Jul 15:44:37 15:56:38 52° 47° (NE) 16:08:29 29.354- 29.394
CUSAT 1 23 Jul 15:49:18 15:51:56 36° 262° (W) 15:55:02 437.405
AO-85 23 Jul 16:01:33 16:06:21 32° 310° (NW) 16:10:58 145.980
HORYU 2 23 Jul 16:01:56 16:05:29 23° 67° (ENE) 16:09:02 437.375
BEESAT 23 Jul 16:02:15 16:06:32 34° 291° (WNW) 16:10:48 436.000
ITUPSAT 1 23 Jul 16:22:59 16:26:41 23° 294° (WNW) 16:30:21 437.325
STARS 23 Jul 16:30:20 16:34:10 28° 96° (E) 16:37:59 437.465
Cosmos 2499 23 Jul 16:44:05 16:52:58 77° 279° (W) 17:01:48 435.465 / 435.565
CUTE-I 23 Jul 16:49:25 16:52:12 14° 60° (ENE) 16:54:58 437.470
NOAA 18 23 Jul 16:49:40 16:52:51 16° 60° (ENE) 16:56:03 137.9125
CUBESAT XI-V 23 Jul 16:52:59 16:54:53 12° 90° (E) 16:56:46 437.345
AO-7 23 Jul 17:01:08 17:07:58 28° 265° (W) 17:14:52 29.400- 29.500
GONETS M04 23 Jul 17:03:25 17:11:38 46° 285° (WNW) 17:19:55
KKS-1 23 Jul 17:16:09 17:20:25 44° 288° (WNW) 17:24:40 437.445
SO-50 23 Jul 17:19:21 17:23:26 29° 48° (NE) 17:27:22 436.795
MOZHAYETS 4 23 Jul 17:20:18 17:24:32 38° 289° (WNW) 17:28:44
NOAA 15 23 Jul 17:21:02 17:25:46 36° 68° (ENE) 17:30:31 137.62
HORYU 2 23 Jul 17:37:51 17:41:51 32° 263° (W) 17:45:53 437.375
GOMX 1 23 Jul 17:50:05 17:53:39 29° 70° (ENE) 17:57:20 467.674
RS-15 23 Jul 17:57:30 18:09:12 52° 250° (WSW) 18:20:43 29.354- 29.394
Cubesat XI-IV 23 Jul 18:01:13 18:06:31 63° 72° (ENE) 18:11:51 437.490
BRITE-PL 23 Jul 18:04:12 18:08:25 77° 259° (W) 18:12:34 437.365/2234.400
DOVE 4 23 Jul 18:04:35 18:07:37 19° 66° (ENE) 18:10:45 437.250
STARS 23 Jul 18:06:44 18:10:25 26° 292° (WNW) 18:14:05 437.465
LilacSat-2 23 Jul 18:14:36 18:18:27 82° 77° (ENE) 18:22:22 437.200
CUTE-I 23 Jul 18:26:10 18:31:33 78° 257° (WSW) 18:36:57 437.470
NOAA 18 23 Jul 18:27:19 18:32:50 74° 257° (WSW) 18:38:24 137.9125
CUBESAT XI-V 23 Jul 18:28:06 18:32:38 61° 286° (WNW) 18:37:10 437.345
Cosmos 2499 23 Jul 18:42:32 18:47:33 16° 299° (WNW) 18:52:34 435.465 / 435.565
PHONESAT 2.4 23 Jul 18:42:43 18:45:28 30° 155° (SSE) 18:48:13 2401.200-2431.200
CINEMA 3 23 Jul 18:46:24 18:49:15 17° 64° (ENE) 18:52:10 145.822/145.860
BEESAT 2 23 Jul 18:52:36 18:54:05 12° 108° (ESE) 18:55:34 435.950
BEESAT 3 23 Jul 18:52:55 18:56:03 23° 113° (ESE) 18:59:12 437.485
SO-50 23 Jul 18:59:47 19:03:53 32° 246° (WSW) 19:07:51 436.795
NOAA 15 23 Jul 19:01:09 19:05:34 27° 264° (W) 19:10:00 137.62
HO-68 23 Jul 19:02:41 19:09:12 39° 64° (ENE) 19:15:43 435.675
SEEDS 23 Jul 19:03:10 19:05:16 14° 65° (ENE) 19:07:22 437.485
YUBILEINY 23 Jul 19:17:30 19:20:20 12° 57° (ENE) 19:23:09 435.215
COMPASS 1 23 Jul 19:22:15 19:24:41 15° 66° (ENE) 19:27:07 437.405
GOMX 1 23 Jul 19:28:42 19:31:49 20° 266° (W) 19:35:00 467.674
CANX-2 23 Jul 19:35:27 19:39:35 49° 73° (ENE) 19:43:44 2200.000
DOVE 4 23 Jul 19:41:14 19:45:04 34° 264° (W) 19:49:04 437.250
Cubesat XI-IV 23 Jul 19:43:47 19:47:00 16° 269° (W) 19:50:13 437.490
CUTE 1.7 + AOD 2 23 Jul 19:49:35 19:53:49 63° 75° (ENE) 19:58:03 437.475
AAUSAT CUBESAT 2 23 Jul 19:53:28 19:56:56 26° 70° (ENE) 20:00:24 437.432
STRAND 1 23 Jul 19:56:04 20:01:08 61° 101° (E) 20:06:11 437.568
UWE-3 23 Jul 20:06:23 20:10:01 24° 68° (ENE) 20:13:45 435.000/436.395/437.385
PCSat 23 Jul 20:12:56 20:18:18 71° 116° (ESE) 20:23:43 145.827
ZACube-1 23 Jul 20:16:33 20:19:52 21° 67° (ENE) 20:23:15 437.345
M-CUBED/EXP-1 PRIME 23 Jul 20:16:55 20:17:32 10° 56° (NE) 20:18:10 437.505
FUNcube-1 23 Jul 20:17:59 20:21:14 20° 66° (ENE) 20:24:32 145.935
PHONESAT 2.4 23 Jul 20:18:44 20:21:49 88° 4° (N) 20:24:55 2401.200-2431.200
CUBEBUG 2 23 Jul 20:19:04 20:23:24 47° 73° (ENE) 20:27:53 437.445
CINEMA 3 23 Jul 20:21:42 20:25:56 47° 262° (W) 20:30:24 145.822/145.860
BEESAT 2 23 Jul 20:27:32 20:31:24 55° 304° (NW) 20:35:20 435.950
BEESAT 3 23 Jul 20:30:10 20:33:36 29° 309° (NW) 20:37:04 437.485
SEEDS 23 Jul 20:36:22 20:40:30 52° 260° (W) 20:44:39 437.485
Cosmos 2491 23 Jul 20:37:32 20:43:11 19° 79° (ENE) 20:48:49 435.465 / 435.565
AUBIESAT-1 23 Jul 20:44:23 20:46:56 18° 60° (ENE) 20:49:38 437.475
HO-68 23 Jul 20:50:09 20:56:48 40° 262° (W) 21:03:31 435.675
DELFI C3 23 Jul 20:50:38 20:53:28 19° 68° (ENE) 20:56:17 145.870
COMPASS 1 23 Jul 20:55:51 20:59:52 44° 261° (W) 21:03:54 437.405
Oscar 11 23 Jul 21:04:55 21:09:14 69° 76° (ENE) 21:13:35 145.826/435.025
YUBILEINY 23 Jul 21:10:22 21:19:09 64° 79° (E) 21:27:52 435.215
CANX-2 23 Jul 21:13:35 21:15:42 13° 269° (W) 21:17:49 2200.000
O/OREOS (USA 219) 23 Jul 21:21:48 21:26:13 66° 109° (ESE) 21:30:40 437.305
AAUSAT CUBESAT 2 23 Jul 21:28:58 21:32:21 24° 265° (W) 21:35:45 437.432
CUTE 1.7 + AOD 2 23 Jul 21:29:14 21:30:02 10° 270° (W) 21:30:51 437.475
ISS 23 Jul 21:32:30 21:33:59 13° 129° (SE) 21:35:29 145.825
PRISM 23 Jul 21:34:00 21:38:06 87° 284° (WNW) 21:42:12 437.425
Cosmos 2504 23 Jul 21:34:05 21:41:07 29° 69° (ENE) 21:47:41 435.465 / 435.565
STRAND 1 23 Jul 21:36:41 21:39:48 17° 298° (WNW) 21:42:54 437.568
UWE-3 23 Jul 21:42:17 21:46:18 32° 264° (W) 21:50:26 435.000/436.395/437.385
M-CUBED/EXP-1 PRIME 23 Jul 21:47:51 21:51:25 63° 254° (WSW) 21:55:19 437.505
ZACube-1 23 Jul 21:51:42 21:55:52 38° 263° (W) 22:00:09 437.345
FUNcube-1 23 Jul 21:52:59 21:57:11 39° 263° (W) 22:01:27 145.935
AIST 2 23 Jul 21:54:34 21:58:34 56° 118° (ESE) 22:02:38 435.215
PHONESAT 2.4 23 Jul 21:55:18 21:58:24 86° 10° (N) 22:01:29 2401.200-2431.200
CUBEBUG 2 23 Jul 21:57:30 22:00:18 16° 269° (W) 22:03:08 437.445
PCSat 23 Jul 21:58:26 22:02:15 19° 314° (NW) 22:06:05 145.827
HUMSAT D 23 Jul 22:04:45 22:09:01 66° 75° (ENE) 22:13:19 437.325/437.525
ANTELSAT 23 Jul 22:07:50 22:11:00 18° 92° (E) 22:14:05 437.575/2403.000
AUBIESAT-1 23 Jul 22:17:47 22:21:07 33° 258° (WSW) 22:24:42 437.475
DELFI C3 23 Jul 22:24:32 22:28:06 31° 263° (W) 22:31:40 145.870
CUBEBUG 1 23 Jul 22:25:45 22:27:39 13° 63° (ENE) 22:29:34 437.445
Cosmos 2491 23 Jul 22:30:09 22:38:53 82° 278° (W) 22:47:39 435.465 / 435.565
TIGRISAT 23 Jul 22:49:40 22:54:11 47° 99° (E) 22:58:35 435.000
AO-85 23 Jul 22:54:05 22:57:43 24° 46° (NE) 23:01:06 145.980
AISAT 23 Jul 22:56:29 23:00:07 26° 68° (ENE) 23:03:45 437.250
O/OREOS (USA 219) 23 Jul 23:03:58 23:06:06 13° 307° (NW) 23:08:13 437.305
UNISAT 6 23 Jul 23:04:36 23:09:17 74° 101° (E) 23:13:51 437.425
ISS 23 Jul 23:06:48 23:10:01 65° 324° (NW) 23:13:16 145.825
YUBILEINY 23 Jul 23:08:16 23:15:13 27° 278° (W) 23:22:09 435.215
DX 1 23 Jul 23:10:07 23:13:40 25° 68° (ENE) 23:17:14 434.975-435.025
ESTCUBE 1 23 Jul 23:14:17 23:18:44 66° 74° (ENE) 23:23:13 437.505/2401.250
50 SAT 23 Jul 23:16:02 23:19:28 37° 73° (ENE) 23:22:53 437.505
Cosmos 2504 23 Jul 23:26:56 23:34:55 55° 270° (W) 23:42:18 435.465 / 435.565
NANOSAT C BR1 23 Jul 23:30:11 23:33:16 19° 94° (E) 23:36:21 145.865
UKube-1 23 Jul 23:30:51 23:34:42 33° 70° (ENE) 23:38:35 .
PHONESAT 2.4 23 Jul 23:31:58 23:34:47 32° 204° (SSW) 23:37:33 2401.200-2431.200
AIST 2 23 Jul 23:34:47 23:37:24 16° 316° (NW) 23:40:02 435.215
DUCHIFAT 1 23 Jul 23:36:16 23:39:32 21° 94° (E) 23:42:45 145.980
ANTELSAT 23 Jul 23:43:28 23:47:53 43° 288° (WNW) 23:52:13 437.575/2403.000
HUMSAT D 23 Jul 23:44:48 23:45:03 10° 271° (W) 23:45:18 437.325/437.525
VELOX 1 23 Jul 23:47:32 23:51:55 90° 94° (E) 23:56:20 145.980
QB50P1 23 Jul 23:49:39 23:53:33 33° 97° (E) 23:57:26 145.935-145.965
POPSAT HIP 1 23 Jul 23:55:38 23:59:40 38° 98° (E) 00:03:40 437.405
CUBEBUG 1 23 Jul 23:59:11 00:03:26 58° 260° (W) 00:07:42 437.445
BUGSAT 1 24 Jul 00:07:02 00:10:13 20° 94° (E) 00:13:25 437.445
AIST 1 24 Jul 00:07:06 00:10:01 17° 72° (ENE) 00:12:56
SPROUT 24 Jul 00:11:19 00:15:34 74° 76° (ENE) 00:19:51 437.525
QB50P2 24 Jul 00:15:22 00:19:40 72° 101° (ESE) 00:23:56 145.880/145.840
POLYITAN 1 24 Jul 00:18:01 00:22:20 74° 103° (ESE) 00:26:36 437.675
TIGRISAT 24 Jul 00:27:24 00:30:27 18° 295° (WNW) 00:33:28 435.000
Cosmos 2491 24 Jul 00:32:14 00:37:11 16° 299° (WNW) 00:42:10 435.465 / 435.565
AISAT 24 Jul 00:32:46 00:36:29 27° 264° (W) 00:40:14 437.250
AO-85 24 Jul 00:34:19 00:38:14 34° 246° (WSW) 00:41:52 145.980
UNISAT 6 24 Jul 00:43:38 00:45:19 12° 299° (WNW) 00:46:59 437.425
ISS 24 Jul 00:44:57 00:46:58 15° 343° (NNW) 00:48:59 145.825
DX 1 24 Jul 00:46:06 00:49:45 27° 264° (W) 00:53:27 434.975-435.025
JAS-2 24 Jul 00:49:12 00:54:09 41° 99° (E) 00:59:26 435.910
Oscar 19 24 Jul 00:50:27 00:51:06 10° 89° (E) 00:51:46 437.125/150
50 SAT 24 Jul 00:51:33 00:53:15 13° 268° (W) 00:54:57 437.505
ESTCUBE 1 24 Jul 00:54:50 00:55:58 11° 270° (W) 00:57:05 437.505/2401.250
NANOSAT C BR1 24 Jul 01:05:12 01:09:05 34° 289° (WNW) 01:12:56 145.865
UKube-1 24 Jul 01:07:38 01:10:49 20° 265° (W) 01:14:00 .
SWISSCUBE 24 Jul 01:09:36 01:12:50 18° 64° (ENE) 01:16:04 437.505
DUCHIFAT 1 24 Jul 01:11:27 01:15:14 31° 290° (WNW) 01:19:00 145.980
GONETS M04 24 Jul 01:18:58 01:24:29 18° 62° (ENE) 01:30:00
TISAT 1 24 Jul 01:20:49 01:24:59 76° 257° (WSW) 01:29:13 437.305
QB50P1 24 Jul 01:25:56 01:29:06 20° 293° (WNW) 01:32:16 145.935-145.965
BEESAT 24 Jul 01:30:34 01:34:31 26° 67° (ENE) 01:38:29 436.000
POPSAT HIP 1 24 Jul 01:32:13 01:35:09 18° 294° (WNW) 01:38:04 437.405
Gurwin Techsat 1B 24 Jul 01:38:16 01:41:07 14° 91° (E) 01:43:58 435.225
BUGSAT 1 24 Jul 01:41:50 01:45:37 32° 290° (WNW) 01:49:25 437.445
AIST 1 24 Jul 01:43:45 01:47:44 36° 268° (W) 01:51:44
ITUPSAT 1 24 Jul 01:50:30 01:54:59 40° 70° (ENE) 01:59:29 437.325
QB50P2 24 Jul 01:54:02 01:54:51 10° 298° (WNW) 01:55:40 145.880/145.840
POLYITAN 1 24 Jul 01:56:50 01:57:29 10° 298° (WNW) 01:58:08 437.675
ISS 24 Jul 02:23:41 02:24:30 11° 3° (N) 02:25:18 145.825
Oscar 19 24 Jul 02:25:51 02:31:02 86° 284° (WNW) 02:36:13 437.125/150
JAS-2 24 Jul 02:34:59 02:39:04 24° 294° (WNW) 02:43:21 435.910
Cosmos 2499 24 Jul 02:37:48 02:45:03 37° 72° (ENE) 02:51:47 435.465 / 435.565
KKS-1 24 Jul 02:38:49 02:41:17 15° 63° (ENE) 02:43:45 437.445
MOZHAYETS 4 24 Jul 02:45:23 02:48:34 19° 65° (ENE) 02:51:44
SWISSCUBE 24 Jul 02:45:37 02:50:14 48° 260° (W) 02:54:53 437.505
BEESAT 24 Jul 03:07:53 03:12:09 32° 263° (W) 03:16:27 436.000
AO-7 24 Jul 03:10:28 03:16:18 20° 92° (E) 03:22:04 29.400- 29.500
BEESAT 3 24 Jul 03:11:06 03:13:15 14° 44° (NE) 03:15:24 437.485
CUSAT 1 24 Jul 03:11:39 03:13:55 14° 94° (E) 03:15:57 437.405
GONETS M04 24 Jul 03:13:47 03:22:38 87° 85° (E) 03:31:29
Gurwin Techsat 1B 24 Jul 03:16:14 03:21:32 67° 286° (WNW) 03:26:47 435.225
STARS 24 Jul 03:26:30 03:29:57 23° 67° (ENE) 03:33:27 437.465
ITUPSAT 1 24 Jul 03:29:23 03:32:57 21° 266° (W) 03:36:32 437.325
ITAMSAT 1 24 Jul 03:52:03 03:57:17 89° 104° (ESE) 04:02:28 435.822/435.867
CUBESAT XI-V 24 Jul 03:56:15 03:58:05 12° 62° (ENE) 03:59:55 437.345
ISS 24 Jul 03:59:19 04:01:54 21° 24° (NNE) 04:04:28 145.825
Oscar 19 24 Jul 04:08:17 04:09:32 11° 301° (WNW) 04:10:47 437.125/150
KKS-1 24 Jul 04:13:04 04:17:23 53° 260° (W) 04:21:44 437.445
MOZHAYETS 4 24 Jul 04:20:57 04:25:22 44° 261° (W) 04:29:49
Cosmos 2499 24 Jul 04:30:56 04:38:11 41° 273° (W) 04:44:56 435.465 / 435.565
DANDE 24 Jul 04:37:52 04:44:02 55° 97° (E) 04:48:40 436.750
BEESAT 2 24 Jul 04:46:05 04:50:04 65° 57° (ENE) 04:54:01 435.950
BEESAT 3 24 Jul 04:47:24 04:51:19 62° 241° (WSW) 04:55:13 437.485
CUSAT 1 24 Jul 04:51:29 04:55:50 37° 280° (W) 04:59:14 437.405
AO-7 24 Jul 05:01:29 05:09:52 81° 291° (WNW) 05:18:10 29.400- 29.500
PCSat 24 Jul 05:01:37 05:06:53 48° 56° (ENE) 05:12:05 145.827
STARS 24 Jul 05:02:16 05:06:09 31° 263° (W) 05:10:04 437.465
GONETS M04 24 Jul 05:12:51 05:18:13 18° 282° (WNW) 05:23:37
HORYU 2 24 Jul 05:28:56 05:33:18 49° 100° (E) 05:37:37 437.375
CUBESAT XI-V 24 Jul 05:30:15 05:34:52 70° 259° (WSW) 05:39:29 437.345
ITAMSAT 1 24 Jul 05:34:09 05:35:58 12° 301° (WNW) 05:37:46 435.822/435.867
ISS 24 Jul 05:35:20 05:38:33 58° 221° (SW) 05:41:45 145.825
STRAND 1 24 Jul 05:37:18 05:37:51 10° 58° (ENE) 05:38:25 437.568
NOAA 15 24 Jul 05:38:19 05:40:55 14° 91° (E) 05:43:29 137.62
GOMX 1 24 Jul 05:53:24 05:55:03 11° 90° (E) 05:56:43 467.674
O/OREOS (USA 219) 24 Jul 05:55:06 05:57:01 12° 53° (NE) 05:58:55 437.305
BRITE-PL 24 Jul 06:08:29 06:12:49 35° 98° (E) 06:17:29 437.365/2234.400
RS-15 24 Jul 06:08:53 06:18:14 31° 103° (ESE) 06:27:55 29.354- 29.394
AIST 2 24 Jul 06:16:42 06:20:25 30° 51° (NE) 06:24:06 435.215
Cubesat XI-IV 24 Jul 06:19:48 06:24:16 26° 95° (E) 06:28:41 437.490
DANDE 24 Jul 06:23:00 06:26:44 17° 285° (WNW) 06:29:55 436.750
BEESAT 2 24 Jul 06:26:51 06:27:19 10° 253° (WSW) 06:27:48 435.950
CUTE-I 24 Jul 06:44:10 06:49:17 45° 99° (E) 06:54:21 437.470
PCSat 24 Jul 06:45:44 06:49:55 23° 253° (WSW) 06:54:05 145.827
NOAA 18 24 Jul 06:50:14 06:55:38 50° 100° (E) 07:00:58 137.9125
AO-7 24 Jul 06:56:06 07:01:22 19° 310° (NW) 07:06:38 29.400- 29.500
HORYU 2 24 Jul 07:06:42 07:09:26 16° 296° (WNW) 07:12:10 437.375
STRAND 1 24 Jul 07:11:00 07:16:10 81° 75° (ENE) 07:21:20 437.568
NOAA 15 24 Jul 07:15:55 07:21:09 70° 286° (WNW) 07:26:23 137.62
LilacSat-2 24 Jul 07:22:56 07:26:46 57° 286° (WNW) 07:30:32 437.200
GOMX 1 24 Jul 07:28:33 07:33:32 79° 283° (WNW) 07:38:49 467.674
O/OREOS (USA 219) 24 Jul 07:32:25 07:36:57 73° 250° (WSW) 07:41:28 437.305
SO-50 24 Jul 07:36:12 07:37:09 11° 106° (ESE) 07:38:07 436.795
CUTE 1.7 + AOD 2 24 Jul 07:37:40 07:38:55 11° 90° (E) 07:40:09 437.475
DOVE 4 24 Jul 07:39:18 07:44:22 64° 101° (E) 07:49:35 437.250
BRITE-PL 24 Jul 07:47:21 07:51:10 25° 291° (WNW) 07:55:11 437.365/2234.400
AIST 2 24 Jul 07:55:20 07:58:47 25° 247° (WSW) 08:02:12 435.215
Cubesat XI-IV 24 Jul 07:59:28 08:04:23 38° 291° (WNW) 08:09:17 437.490
CUBEBUG 2 24 Jul 08:13:03 08:14:36 11° 89° (E) 08:16:08 437.445
CINEMA 3 24 Jul 08:16:36 08:21:26 45° 98° (E) 08:26:13 145.822/145.860
RS-15 24 Jul 08:18:02 08:29:30 74° 305° (NW) 08:41:40 29.354- 29.394
HO-68 24 Jul 08:18:07 08:24:53 42° 99° (E) 08:31:36 435.675
YUBILEINY 24 Jul 08:19:55 08:23:19 13° 74° (ENE) 08:26:43 435.215
SEEDS 24 Jul 08:21:21 08:24:51 25° 95° (E) 08:28:18 437.485
PRISM 24 Jul 08:22:24 08:26:24 58° 74° (ENE) 08:30:25 437.425
CUTE-I 24 Jul 08:24:53 08:29:01 23° 295° (WNW) 08:33:08 437.470
NOAA 18 24 Jul 08:31:42 08:35:55 23° 297° (WNW) 08:40:05 137.9125
COMPASS 1 24 Jul 08:39:33 08:43:09 28° 96° (E) 08:46:43 437.405
Cosmos 2491 24 Jul 08:41:33 08:49:59 49° 76° (ENE) 08:58:23 435.465 / 435.565
STRAND 1 24 Jul 08:54:32 08:55:54 11° 271° (W) 08:57:17 437.568
Oscar 11 24 Jul 08:54:39 08:56:42 13° 91° (E) 08:58:44 145.826/435.025
CANX-2 24 Jul 08:56:46 09:00:59 72° 285° (WNW) 09:05:10 2200.000
ANTELSAT 24 Jul 09:06:23 09:09:07 16° 64° (ENE) 09:11:51 437.575/2403.000
CUTE 1.7 + AOD 2 24 Jul 09:10:58 09:15:06 57° 286° (WNW) 09:19:12 437.475
AAUSAT CUBESAT 2 24 Jul 09:11:01 09:15:03 52° 99° (E) 09:19:03 437.432
SO-50 24 Jul 09:12:02 09:16:56 87° 304° (NW) 09:21:49 436.795
DOVE 4 24 Jul 09:18:29 09:21:33 16° 296° (WNW) 09:24:41 437.250
M-CUBED/EXP-1 PRIME 24 Jul 09:29:51 09:31:01 11° 95° (E) 09:32:10 437.505
UWE-3 24 Jul 09:32:09 09:36:43 56° 99° (E) 09:41:10 435.000/436.395/437.385
ZACube-1 24 Jul 09:40:37 09:44:58 44° 98° (E) 09:49:11 437.345
FUNcube-1 24 Jul 09:41:39 09:45:56 42° 98° (E) 09:50:06 145.935
CUBEBUG 2 24 Jul 09:46:57 09:51:41 69° 285° (WNW) 09:56:18 437.445
TIGRISAT 24 Jul 09:47:16 09:51:30 38° 71° (ENE) 09:55:49 435.000
HUMSAT D 24 Jul 09:51:34 09:52:41 11° 90° (E) 09:53:49 437.325/437.525
CINEMA 3 24 Jul 09:54:30 09:58:13 21° 294° (WNW) 10:01:55 145.822/145.860
SEEDS 24 Jul 09:57:03 10:00:27 25° 291° (WNW) 10:03:50 437.485
AUBIESAT-1 24 Jul 09:57:10 10:00:20 18° 98° (E) 10:03:30 437.475
PRISM 24 Jul 10:01:29 10:02:04 10° 269° (W) 10:02:38 437.425
UNISAT 6 24 Jul 10:02:10 10:06:40 58° 74° (ENE) 10:11:16 437.425
DELFI C3 24 Jul 10:02:34 10:06:07 31° 97° (E) 10:09:38 145.870
HO-68 24 Jul 10:06:00 10:12:28 37° 296° (WNW) 10:18:54 435.675
YUBILEINY 24 Jul 10:09:43 10:18:27 75° 93° (E) 10:27:15 435.215
Cosmos 2504 24 Jul 10:11:06 10:18:01 27° 82° (E) 10:24:58 435.465 / 435.565
COMPASS 1 24 Jul 10:15:22 10:18:33 22° 292° (WNW) 10:21:44 437.405
NANOSAT C BR1 24 Jul 10:22:38 10:24:47 14° 64° (ENE) 10:26:57 145.865
DUCHIFAT 1 24 Jul 10:28:19 10:30:43 15° 65° (ENE) 10:33:07 145.980
Oscar 11 24 Jul 10:28:55 10:33:08 51° 286° (WNW) 10:37:17 145.826/435.025
RS-15 24 Jul 10:34:54 10:44:34 28° 333° (NNW) 10:54:36 29.354- 29.394
Cosmos 2491 24 Jul 10:38:52 10:46:29 35° 275° (W) 10:54:08 435.465 / 435.565
ANTELSAT 24 Jul 10:40:50 10:45:19 54° 260° (W) 10:49:56 437.575/2403.000
QB50P1 24 Jul 10:41:39 10:45:02 23° 68° (ENE) 10:48:25 145.935-145.965
POPSAT HIP 1 24 Jul 10:47:34 10:51:07 26° 69° (ENE) 10:54:41 437.405
AAUSAT CUBESAT 2 24 Jul 10:48:16 10:50:03 13° 296° (WNW) 10:51:51 437.432
SO-50 24 Jul 10:55:26 10:58:07 14° 320° (NW) 11:00:47 436.795
BUGSAT 1 24 Jul 10:57:21 10:59:16 13° 64° (ENE) 11:01:14 437.445
M-CUBED/EXP-1 PRIME 24 Jul 11:01:15 11:05:56 79° 289° (WNW) 11:10:39 437.505
JAS-2 24 Jul 11:02:39 11:06:29 18° 63° (ENE) 11:10:06 435.910
QB50P2 24 Jul 11:07:00 11:11:04 47° 73° (ENE) 11:15:11 145.880/145.840
ESTCUBE 1 24 Jul 11:08:57 11:11:27 15° 92° (E) 11:13:56 437.505/2401.250
POLYITAN 1 24 Jul 11:09:37 11:13:42 48° 73° (ENE) 11:17:50 437.675
UWE-3 24 Jul 11:10:03 11:12:40 15° 296° (WNW) 11:15:14 435.000/436.395/437.385
ZACube-1 24 Jul 11:17:51 11:20:52 18° 295° (WNW) 11:23:49 437.345
FUNcube-1 24 Jul 11:18:45 11:21:49 18° 294° (WNW) 11:24:50 145.935
